Home > Time Zones > World Clock > Weather > Fiji > Nadi > Past weeks

Flag for Fiji Weather past 2 weeks in Nadi, Fiji

Now
72 °F

Passing clouds.


Feels Like: 76 °F
Forecast: 72 / 82 °F
Wind: 9 mph from Southeast

Location: Nandi

Current Time: Sep 23, 2014 at 9:33:33 PM

Latest Report: Sep 23, 2014 at 9:00 PM


Visibility: N/A

Pressure: 30.01 "Hg

Humidity: 61%

Dew point: 57 °F

Location of NadiLocation

Historic Weather in Nadi — Graph

°F

Nadi temperature yesterday

Maximum temperature yesterday: 88 °F (at 2:00 PM)
Minimum temperature yesterday: 72 °F (at 4:00 AM)
Average temperature yesterday: 78 °F

Past Weeks' High & Low Weather Summary

 TemperatureHumidityPressure
High90 °F (Sep 13, 1:00 PM)100% (Sep 20, 1:00 AM)30.04 "Hg (Sep 20, 1:00 AM)
Low64 °F (Sep 14, 6:00 AM)37% (Sep 14, 10:00 AM)29.83 "Hg (Sep 13, 3:00 PM)
Average77 °F72%29.94 "Hg
* Reported Sep 8 8:00 PM — Sep 23 8:00 PM, Nadi, Weather by CustomWeather, © 2014

Note: Actual official high and low records may vary slightly from our data, if they occured in-between our weather recording intervals... More about our weather records

Advertising

Nadi weather history for previous 24 hours

 ConditionsComfort  
Time TempWeatherWind HumidityBarometerVisibility
8:00 PM
Sep 23
73 °FPassing clouds.12 mph57%29.98 "HgN/A
7:00 PM75 °FPassing clouds.7 mph54%29.98 "HgN/A
6:00 PM77 °FPartly sunny.9 mph54%29.95 "HgN/A
5:00 PM81 °FPartly sunny.13 mph48%29.92 "HgN/A
4:00 PM84 °FBroken clouds.12 mph51%29.89 "HgN/A
3:00 PM84 °FPartly sunny.8 mph48%29.89 "HgN/A
2:00 PM88 °FPartly sunny.9 mph38%29.89 "HgN/A
1:00 PM86 °FPartly sunny.7 mph43%29.95 "HgN/A
12:00 PM84 °FPartly sunny.8 mph43%29.98 "HgN/A
11:00 AM82 °FPartly sunny.10 mph45%29.98 "HgN/A
10:00 AM81 °FPartly sunny.15 mph51%30.01 "HgN/A
9:00 AM79 °FBroken clouds.13 mph58%30.01 "HgN/A
8:00 AM75 °FBroken clouds.12 mph65%30.01 "HgN/A
7:00 AM72 °FPartly sunny.7 mph73%29.98 "HgN/A
6:00 AM70 °FPartly sunny.7 mph83%29.98 "HgN/A
5:00 AM72 °FPassing clouds.5 mph78%29.95 "HgN/A
4:00 AM72 °FPassing clouds.6 mph73%29.95 "HgN/A
3:00 AM72 °FPassing clouds.6 mph78%29.95 "HgN/A
2:00 AM72 °FPassing clouds.7 mph78%29.95 "HgN/A
1:00 AM72 °FPassing clouds.6 mph78%29.98 "HgN/A
12:00 AM73 °FPassing clouds.6 mph74%29.98 "HgN/A
11:00 PM
Sep 22
73 °FPassing clouds.8 mph74%29.98 "HgN/A
10:00 PM75 °FPassing clouds.8 mph69%30.01 "HgN/A
9:00 PM75 °FPassing clouds.9 mph74%29.98 "HgN/A
Weather by CustomWeather, © 2014

See weather overviewHow to use our weather pages